Weather History for Wolf Creek Pass, CO

Change the Weather History Date:

Saturday, January 12, 2013

  Actual Average (KALS) Record (KALS)
Temperature  
Mean Temperature -10 °F 16 °F  
Max Temperature -5 °F 34 °F 52 °F (2000)
Min Temperature -14 °F -2 °F -37 °F (1963)
Degree Days  
Heating Degree Days 74 49  
Month to date heating degree days 588  
Since 1 July heating degree days 4225  
Cooling Degree Days 0 0  
Month to date cooling degree days 0  
Year to date cooling degree days 0  
Moisture  
Dew Point -15 °F    
Average Humidity 81    
Maximum Humidity 84    
Minimum Humidity 77    
Precipitation  
Precipitation 0.00 in 0.00 in 0.21 in (2005)
Month to date precipitation 0.09  
Year to date precipitation 0.09  
Snow  
Snow 0.00 in 0.10 in 2.60 in (1979)
Month to date snowfall 1.4  
Since 1 July snowfall 11.7  
Snow Depth -    
Sea Level Pressure  
Sea Level Pressure 29.56 in    
Wind  
Wind Speed 9 mph (SW)    
Max Wind Speed 15 mph    
Max Gust Speed 24 mph    
T = Trace of Precipitation, MM = Missing Value Source: NWS Daily Summary

Daily Weather History Graph

Daily Weather History Graph

Search for Another Location

Airport:

Trip Planner

Search our weather history database for the weather conditions in past years. The results will help you decide how hot, cold, wet, or windy it might be!

Date:

Astronomy

Jan. 12, 2013 Rise Set
Actual Time 7:21 AM MST 5:10 PM MST
Civil Twilight 6:52 AM MST 5:38 PM MST
Nautical Twilight 6:20 AM MST 6:11 PM MST
Astronomical Twilight 5:48 AM MST 6:42 PM MST
Moon 7:44 AM MST (1/12) 6:39 PM MST (1/12)
Length of Visible Light 10h 46m
Length of Day
9h 48m
New Moon, 1% of the Moon is Illuminated
Jan 12
New Moon
Jan 18
First Quarter
Jan 26
Full
Feb 3
Last Quarter
Feb 10
New

Hourly Weather History & Observations

Time (MST) Temp. Windchill Dew Point Humidity Pressure Visibility Wind Dir Wind Speed Gust Speed Precip Events Conditions
12:06 AM -13.0 °F -34.3 °F -16.6 °F 84% 29.57 in - SW 12.7 mph - N/A   Overcast
12:23 AM -13.0 °F -35.2 °F -16.6 °F 84% 29.57 in - SW 13.8 mph - N/A   Overcast
12:46 AM -13.0 °F -34.3 °F -16.6 °F 84% 29.57 in - SW 12.7 mph - N/A   Overcast
1:05 AM -13.0 °F -33.4 °F -16.6 °F 84% 29.56 in - SW 11.5 mph - N/A   Overcast
1:27 AM -13.0 °F -35.2 °F -16.6 °F 84% 29.56 in - SW 13.8 mph - N/A   Mostly Cloudy
1:46 AM -13.0 °F -34.3 °F -18.4 °F 77% 29.56 in - SW 12.7 mph - N/A   Clear
2:05 AM -14.8 °F -33.5 °F -18.4 °F 84% 29.56 in - SW 9.2 mph - N/A   Unknown
2:44 AM -13.0 °F -32.4 °F -18.4 °F 77% 29.54 in - WSW 10.4 mph - N/A   Unknown
3:07 AM -13.0 °F -31.3 °F -18.4 °F 77% 29.54 in - WSW 9.2 mph - N/A   Scattered Clouds
3:27 AM -13.0 °F -27.0 °F -18.4 °F 77% 29.53 in - WSW 5.8 mph - N/A   Scattered Clouds
3:43 AM -13.0 °F -28.6 °F -18.4 °F 77% 29.52 in - West 6.9 mph - N/A   Scattered Clouds
4:07 AM -13.0 °F -27.0 °F -18.4 °F 77% 29.52 in - NNW 5.8 mph - N/A   Unknown
4:27 AM -13.0 °F -30.0 °F -18.4 °F 77% 29.51 in - NNW 8.1 mph - N/A   Scattered Clouds
4:45 AM -13.0 °F -25.1 °F -18.4 °F 77% 29.51 in - NNW 4.6 mph - N/A   Scattered Clouds
5:06 AM -14.8 °F - -18.4 °F 84% 29.52 in - Calm Calm - N/A   Unknown
5:26 AM -13.0 °F - -18.4 °F 77% 29.52 in - Calm Calm - N/A   Scattered Clouds
5:47 AM -13.0 °F -25.1 °F -16.6 °F 84% 29.53 in - NNW 4.6 mph - N/A   Unknown
6:01 AM -13.0 °F - -16.6 °F 84% 29.53 in - Calm Calm - N/A   Unknown
6:27 AM -13.0 °F -22.7 °F -18.4 °F 77% 29.54 in - East 3.5 mph - N/A   Clear
6:44 AM -14.8 °F -24.8 °F -18.4 °F 84% 29.54 in - East 3.5 mph - N/A   Unknown
7:05 AM -13.0 °F -25.1 °F -16.6 °F 84% 29.54 in - East 4.6 mph - N/A   Unknown
7:27 AM -13.0 °F -25.1 °F -16.6 °F 84% 29.54 in - East 4.6 mph - N/A   Unknown
7:47 AM -13.0 °F -22.7 °F -16.6 °F 84% 29.56 in - East 3.5 mph - N/A   Scattered Clouds
8:07 AM -11.2 °F - -16.6 °F 77% 29.56 in - Calm Calm - N/A   Unknown
8:27 AM -11.2 °F - -14.8 °F 84% 29.57 in - Calm Calm - N/A   Unknown
9:07 AM -9.4 °F -22.7 °F -14.8 °F 77% 29.59 in - SSW 5.8 mph - N/A   Scattered Clouds
9:27 AM -9.4 °F -25.6 °F -13.0 °F 84% 29.59 in - SSW 8.1 mph - N/A   Unknown
9:47 AM -7.6 °F -24.6 °F -13.0 °F 77% 29.59 in - SSW 9.2 mph - N/A   Clear
10:07 AM -7.6 °F -23.4 °F -13.0 °F 77% 29.59 in - SSW 8.1 mph - N/A   Scattered Clouds
10:27 AM -5.8 °F -18.4 °F -9.4 °F 84% 29.59 in - SSW 5.8 mph - N/A   Unknown
11:07 AM -5.8 °F -22.4 °F -9.4 °F 84% 29.57 in - SSW 9.2 mph 16.1 mph N/A   Unknown
11:27 AM -5.8 °F -22.4 °F -9.4 °F 84% 29.57 in - South 9.2 mph - N/A   Overcast
11:47 AM -5.8 °F -21.2 °F -9.4 °F 84% 29.56 in - SSW 8.1 mph - N/A   Overcast
12:07 PM -5.8 °F -21.2 °F -9.4 °F 84% 29.55 in - SW 8.1 mph - N/A   Overcast
12:27 PM -5.8 °F -22.4 °F -9.4 °F 84% 29.54 in - SW 9.2 mph - N/A   Overcast
12:47 PM -5.8 °F -22.4 °F -9.4 °F 84% 29.54 in - SSW 9.2 mph 16.1 mph N/A   Overcast
1:07 PM -5.8 °F -22.4 °F -9.4 °F 84% 29.54 in - SSW 9.2 mph 17.3 mph N/A   Overcast
1:27 PM -5.8 °F -21.2 °F -11.2 °F 77% 29.53 in - SW 8.1 mph 16.1 mph N/A   Overcast
1:47 PM -5.8 °F -18.4 °F -9.4 °F 84% 29.54 in - SW 5.8 mph - N/A   Overcast
2:07 PM -5.8 °F -23.4 °F -9.4 °F 84% 29.54 in - South 10.4 mph 19.6 mph N/A   Overcast
2:27 PM -5.8 °F -18.4 °F -9.4 °F 84% 29.54 in - SSW 5.8 mph 18.4 mph N/A   Overcast
2:47 PM -5.8 °F -18.4 °F -9.4 °F 84% 29.54 in - South 5.8 mph 17.3 mph N/A   Overcast
3:07 PM -7.6 °F -28.3 °F -11.2 °F 84% 29.54 in - SW 13.8 mph 19.6 mph N/A   Overcast
3:27 PM -7.6 °F -20.6 °F -11.2 °F 84% 29.55 in - SSW 5.8 mph - N/A   Overcast
3:47 PM -7.6 °F -24.6 °F -13.0 °F 77% 29.55 in - SW 9.2 mph 17.3 mph N/A   Overcast
4:07 PM -7.6 °F -23.4 °F -13.0 °F 77% 29.56 in - South 8.1 mph 18.4 mph N/A   Overcast
4:27 PM -7.6 °F -28.3 °F -13.0 °F 77% 29.56 in - SSW 13.8 mph 24.2 mph N/A   Overcast
4:47 PM -9.4 °F -28.9 °F -13.0 °F 84% 29.56 in - SW 11.5 mph 19.6 mph N/A   Mostly Cloudy
5:07 PM -9.4 °F -31.4 °F -14.8 °F 77% 29.56 in - SW 15.0 mph - N/A   Mostly Cloudy
5:27 PM -9.4 °F -30.6 °F -14.8 °F 77% 29.56 in - SW 13.8 mph - N/A   Mostly Cloudy
5:47 PM -11.2 °F -32.1 °F -14.8 °F 84% 29.56 in - SW 12.7 mph - N/A   Overcast
6:07 PM -11.2 °F -32.1 °F -14.8 °F 84% 29.56 in - SSW 12.7 mph - N/A   Overcast
6:27 PM -9.4 °F -31.4 °F -14.8 °F 77% 29.56 in - SW 15.0 mph 19.6 mph N/A   Overcast
6:47 PM -9.4 °F -29.8 °F -14.8 °F 77% 29.56 in - SW 12.7 mph 21.9 mph N/A   Overcast
7:07 PM -9.4 °F -31.4 °F -14.8 °F 77% 29.57 in - SW 15.0 mph 21.9 mph N/A   Overcast
7:27 PM -9.4 °F -30.6 °F -14.8 °F 77% 29.57 in - SW 13.8 mph 19.6 mph N/A   Overcast
7:47 PM -9.4 °F -29.8 °F -14.8 °F 77% 29.57 in - SSW 12.7 mph 18.4 mph N/A   Overcast
8:07 PM -9.4 °F -30.6 °F -14.8 °F 77% 29.57 in - SW 13.8 mph - N/A   Overcast
8:27 PM -11.2 °F -33.7 °F -16.6 °F 77% 29.57 in - SW 15.0 mph - N/A   Overcast
8:47 PM -11.2 °F -32.9 °F -16.6 °F 77% 29.57 in - SW 13.8 mph - N/A   Overcast
9:07 PM -13.0 °F -35.2 °F -16.6 °F 84% 29.57 in - SW 13.8 mph - N/A   Overcast
9:27 PM -13.0 °F -35.2 °F -16.6 °F 84% 29.57 in - SW 13.8 mph - N/A   Overcast
9:47 PM -13.0 °F -36.0 °F -16.6 °F 84% 29.57 in - SW 15.0 mph - N/A   Overcast
10:07 PM -13.0 °F -34.3 °F -16.6 °F 84% 29.57 in - SW 12.7 mph - N/A   Overcast
10:27 PM -11.2 °F -31.1 °F -16.6 °F 77% 29.57 in - SW 11.5 mph 18.4 mph N/A   Overcast
10:47 PM -11.2 °F -32.9 °F -16.6 °F 77% 29.58 in - SW 13.8 mph 18.4 mph N/A   Overcast
11:07 PM -11.2 °F -31.1 °F -16.6 °F 77% 29.58 in - SW 11.5 mph 19.6 mph N/A   Overcast
11:27 PM -11.2 °F -32.1 °F -16.6 °F 77% 29.58 in - SW 12.7 mph 20.7 mph N/A   Overcast